Boscobel, WI

2:21 AM CDT on April 28, 2017 (GMT -0500)
Boscobel

Weather History for KOVS - December, 2011

Change the Weather History Date:

Wednesday, December 21, 2011

  Actual Average (KPDC) Record (KPDC)
Temperature  
Mean Temperature 36 °F -  
Max Temperature 44 °F 29 °F 50 °F (1967)
Min Temperature 28 °F 11 °F -21 °F (1963)
Degree Days  
Heating Degree Days 29    
Moisture  
Dew Point 30 °F    
Average Humidity 85    
Maximum Humidity 93    
Minimum Humidity 62    
Precipitation  
Precipitation 0.03 in - - ()
Sea Level Pressure  
Sea Level Pressure 29.76 in    
Wind  
Wind Speed 0 mph (SW)    
Max Wind Speed 9 mph    
Max Gust Speed -    
Visibility 5 miles    
Events Rain , Snow    
Averages and records for this station are not official NWS values.
T = Trace of Precipitation, MM = Missing Value Source: NWS Daily Summary

Daily Weather History Graph

Daily Weather History Graph

Search for Another Location

Airport or City:

Trip Planner

Search our weather history database for the weather conditions in past years. The results will help you decide how hot, cold, wet, or windy it might be!

Date:

Astronomy

Dec. 21, 2011 Rise Set
Actual Time 7:31 AM CST 4:30 PM CST
Civil Twilight 6:58 AM CST 5:02 PM CST
Nautical Twilight 6:22 AM CST 5:38 PM CST
Astronomical Twilight 5:47 AM CST 6:13 PM CST
Moon 4:02 AM CST (12/21) 1:51 PM CST (12/21)
Length of Visible Light 10h 04m
Length of Day
8h 59m
Waning Crescent, 12% of the Moon is Illuminated
Dec 21
Waning Crescent
Dec 24
New
Jan 1
First Quarter
Jan 9
Full
Jan 16
Last Quarter

Hourly Weather History & Observations

Time (CST) Temp. Windchill Dew Point Humidity Pressure Visibility Wind Dir Wind Speed Gust Speed Precip Events Conditions
12:53 AM 34.0 °F - 28.9 °F 82% 29.78 in 10.0 mi Calm Calm - N/A   Overcast
1:25 AM 33.8 °F - 30.2 °F 87% 29.75 in 10.0 mi Calm Calm - N/A   Overcast
1:53 AM 34.0 °F - 30.0 °F 85% 29.76 in 9.0 mi Calm Calm - N/A   Overcast
2:53 AM 34.0 °F - 30.0 °F 85% 29.75 in 9.0 mi Calm Calm - N/A   Overcast
3:00 AM 33.8 °F - 30.2 °F 87% 29.73 in 9.0 mi Calm Calm - N/A   Overcast
3:08 AM 33.8 °F - 30.2 °F 87% 29.73 in 9.0 mi Calm Calm - N/A   Overcast
3:45 AM 33.8 °F - 30.2 °F 87% 29.72 in 9.0 mi Calm Calm - N/A   Overcast
3:53 AM 34.0 °F - 30.0 °F 85% 29.74 in 8.0 mi Calm Calm - N/A   Overcast
4:05 AM 33.8 °F - 30.2 °F 87% 29.71 in 8.0 mi Calm Calm - N/A   Overcast
4:45 AM 33.8 °F - 30.2 °F 87% 29.71 in 7.0 mi Calm Calm - N/A   Overcast
4:53 AM 34.0 °F - 30.0 °F 85% 29.73 in 5.0 mi Calm Calm - 0.00 in Rain Light Rain
5:15 AM 33.8 °F - 30.2 °F 87% 29.71 in 2.0 mi Calm Calm - 0.00 in Snow Light Snow
5:23 AM 33.8 °F - 30.2 °F 87% 29.70 in 1.8 mi Calm Calm - 0.01 in Snow Light Snow
5:31 AM 33.8 °F - 30.2 °F 87% 29.70 in 2.0 mi Calm Calm - 0.01 in Snow Light Snow
5:53 AM 33.1 °F - 30.9 °F 92% 29.73 in 2.5 mi Calm Calm - 0.01 in Snow Light Snow
6:07 AM 33.8 °F - 32.0 °F 93% 29.71 in 3.0 mi Calm Calm - 0.00 in   Overcast
6:53 AM 34.0 °F - 30.9 °F 89% 29.74 in 5.0 mi Calm Calm - 0.00 in   Overcast
7:04 AM 33.8 °F - 30.2 °F 87% 29.71 in 3.0 mi Calm Calm - N/A   Overcast
7:19 AM 33.8 °F - 30.2 °F 87% 29.71 in 2.5 mi Calm Calm - N/A   Overcast
7:34 AM 33.8 °F - 30.2 °F 87% 29.71 in 3.0 mi Calm Calm - N/A   Overcast
7:44 AM 33.8 °F - 30.2 °F 87% 29.71 in 3.0 mi Calm Calm - N/A   Overcast
7:53 AM 33.1 °F - 30.9 °F 92% 29.74 in 3.0 mi Calm Calm - N/A   Overcast
8:01 AM 33.8 °F - 30.2 °F 87% 29.71 in 2.0 mi Calm Calm - N/A   Overcast
8:09 AM 33.8 °F - 30.2 °F 87% 29.71 in 1.8 mi Calm Calm - N/A   Overcast
8:26 AM 33.8 °F - 32.0 °F 93% 29.71 in 0.8 mi Calm Calm - N/A   Overcast
8:46 AM 33.8 °F - 32.0 °F 93% 29.72 in 2.0 mi Calm Calm - N/A   Overcast
8:53 AM 34.0 °F - 30.9 °F 89% 29.75 in 2.0 mi Calm Calm - N/A   Overcast
9:05 AM 33.8 °F - 32.0 °F 93% 29.71 in 1.8 mi Calm Calm - N/A   Overcast
9:14 AM 33.8 °F - 32.0 °F 93% 29.72 in 2.5 mi Calm Calm - N/A   Overcast
9:23 AM 35.6 °F - 32.0 °F 87% 29.71 in 3.0 mi Calm Calm - N/A   Overcast
9:53 AM 36.0 °F - 32.0 °F 86% 29.75 in 4.0 mi Calm Calm - N/A   Overcast
10:53 AM 37.0 °F 33.3 °F 33.1 °F 86% 29.75 in 5.0 mi WSW 4.6 mph - N/A   Overcast
11:53 AM 39.9 °F 35.1 °F 34.0 °F 79% 29.74 in 6.0 mi SSW 6.9 mph - N/A   Haze
12:03 PM 39.2 °F 35.9 °F 33.8 °F 81% 29.72 in 6.0 mi SW 4.6 mph - N/A   Haze
12:53 PM 43.0 °F 37.7 °F 33.1 °F 68% 29.75 in 8.0 mi WSW 9.2 mph - N/A   Clear
1:53 PM 42.1 °F 37.7 °F 32.0 °F 67% 29.74 in 8.0 mi SW 6.9 mph - N/A   Partly Cloudy
2:53 PM 44.1 °F - 32.0 °F 63% 29.74 in 10.0 mi Calm Calm - N/A   Clear
3:53 PM 42.1 °F 38.4 °F 30.0 °F 62% 29.77 in 10.0 mi SSW 5.8 mph - N/A   Clear
4:53 PM 37.9 °F - 28.9 °F 70% 29.80 in 10.0 mi Calm Calm - N/A   Clear
5:12 PM 33.8 °F - 28.4 °F 81% 29.78 in 1.8 mi Calm Calm - N/A   Haze
5:26 PM 33.8 °F - 28.4 °F 81% 29.78 in 3.0 mi Calm Calm - N/A   Haze
5:53 PM 33.1 °F - 28.0 °F 82% 29.83 in 2.5 mi Calm Calm - N/A   Haze
6:08 PM 30.2 °F - 26.6 °F 86% 29.80 in 4.0 mi Calm Calm - N/A   Clear
6:53 PM 30.9 °F - 28.0 °F 89% 29.85 in 7.0 mi Calm Calm - N/A   Scattered Clouds
7:53 PM 28.9 °F - 27.0 °F 92% 29.88 in 6.0 mi Calm Calm - N/A   Mostly Cloudy
8:53 PM 30.9 °F - 28.0 °F 89% 29.88 in 6.0 mi Calm Calm - N/A   Mostly Cloudy
9:53 PM 32.0 °F - 28.9 °F 88% 29.91 in 7.0 mi Calm Calm - N/A   Overcast
10:46 PM 33.8 °F - 30.2 °F 87% 29.91 in 5.0 mi Calm Calm - 0.00 in Rain Light Freezing Rain
10:53 PM 33.1 °F - 30.0 °F 89% 29.94 in 5.0 mi Calm Calm - 0.00 in Rain Light Freezing Rain
11:53 PM 34.0 °F - 30.9 °F 89% 29.96 in 3.0 mi Calm Calm - 0.02 in Snow Light Snow